Total_Precipitation_Accumulation
1.82 2.05 1.60 1.00 0.79 0.69 0.63 0.52 0.41 0.34 0.38 0.50 0.45 0.38 0.43 0.46 0.54 0.55 0.55 0.59 0.65 0.84 1.00 1.20 1.52 1.91 2.22 2.41 2.72 2.88 3.11 3.34 3.43 3.37 3.06 2.83 2.66 2.58 2.39 2.09 1.86 1.81 1.73 1.63
1.78 1.56 0.88 0.63 0.71 0.79 0.79 0.73 0.51 0.37 0.32 0.46 0.47 0.41 0.41 0.44 0.51 0.54 0.56 0.54 0.57 0.66 0.83 1.03 1.40 1.62 1.87 2.13 2.31 2.62 2.73 3.04 3.09 3.01 2.98 2.85 2.83 2.76 2.62 2.43 2.13 2.00 1.94 1.82
1.33 0.95 0.71 0.79 0.94 1.00 0.84 0.70 0.58 0.53 0.44 0.52 0.60 0.56 0.43 0.41 0.42 0.41 0.43 0.43 0.49 0.54 0.63 0.80 1.12 1.43 1.58 1.86 2.14 2.28 2.42 2.68 2.93 2.99 3.16 3.25 3.22 3.02 2.74 2.55 2.44 2.22 2.14 2.06
1.14 0.80 0.84 0.91 0.90 0.94 0.88 0.51 0.56 0.62 0.79 0.77 0.62 0.78 0.51 0.39 0.35 0.36 0.39 0.36 0.41 0.48 0.54 0.65 0.76 1.03 1.27 1.50 1.90 2.21 2.41 2.57 2.76 3.07 3.07 2.96 2.83 2.66 2.42 2.40 2.46 2.44 2.33 2.24
1.17 0.86 0.97 1.00 0.69 0.73 0.79 0.53 0.62 0.72 0.88 0.89 0.59 0.67 0.53 0.33 0.34 0.37 0.39 0.39 0.46 0.56 0.59 0.61 0.65 0.79 1.00 1.22 1.61 1.98 2.23 2.53 2.77 2.88 2.88 2.91 2.70 2.52 2.50 2.45 2.47 2.36 2.26 2.24
0.85 0.85 1.05 0.93 0.62 0.68 0.86 0.89 0.97 1.03 1.35 1.36 0.57 0.55 0.53 0.41 0.43 0.42 0.42 0.43 0.51 0.58 0.62 0.61 0.64 0.73 0.90 1.04 1.29 1.69 1.96 2.10 2.39 2.69 2.70 2.68 2.65 2.62 2.59 2.41 2.34 2.35 2.29 2.22
1.11 0.97 0.98 0.97 1.03 1.07 1.29 1.81 2.39 2.33 2.01 1.09 0.39 0.44 0.51 0.43 0.46 0.50 0.52 0.54 0.55 0.55 0.56 0.56 0.63 0.72 0.86 1.00 1.14 1.33 1.58 1.71 1.89 2.17 2.34 2.35 2.42 2.52 2.45 2.35 2.15 2.11 2.10 2.08
1.25 1.22 0.95 1.10 1.26 1.38 1.32 1.55 1.83 1.52 0.95 0.55 0.36 0.43 0.47 0.43 0.47 0.51 0.53 0.54 0.51 0.55 0.57 0.55 0.55 0.63 0.74 0.88 1.04 1.14 1.28 1.42 1.60 1.78 1.93 2.09 2.20 2.37 2.39 2.34 2.13 1.95 1.89 1.88
1.12 1.04 0.72 0.87 0.93 1.02 1.22 1.19 1.04 1.30 0.83 0.55 0.43 0.37 0.34 0.32 0.34 0.42 0.46 0.46 0.48 0.56 0.58 0.55 0.53 0.54 0.66 0.75 0.89 1.00 1.13 1.24 1.35 1.52 1.69 1.84 1.93 2.01 2.10 2.19 2.16 2.02 1.89 1.83
1.14 1.18 0.82 0.88 1.11 1.08 1.00 0.99 1.23 1.71 1.36 0.80 0.44 0.31 0.42 0.40 0.38 0.43 0.46 0.50 0.56 0.59 0.56 0.51 0.52 0.56 0.64 0.66 0.74 0.87 1.04 1.11 1.15 1.27 1.42 1.52 1.63 1.79 1.89 1.96 1.95 1.91 1.88 1.82
1.06 1.34 1.07 1.12 1.35 1.09 0.97 1.21 1.41 1.40 1.10 0.95 0.68 0.55 0.52 0.48 0.44 0.46 0.48 0.52 0.59 0.60 0.57 0.57 0.58 0.65 0.72 0.68 0.71 0.80 0.91 1.08 1.12 1.17 1.26 1.30 1.30 1.38 1.56 1.72 1.78 1.78 1.81 1.80
1.02 1.38 1.16 0.95 0.79 0.73 0.84 0.92 1.15 1.51 1.11 0.80 0.76 0.73 0.54 0.48 0.43 0.42 0.45 0.49 0.52 0.54 0.54 0.59 0.65 0.65 0.68 0.72 0.76 0.80 0.84 0.99 1.10 1.15 1.19 1.25 1.24 1.20 1.29 1.41 1.55 1.66 1.75 1.73
1.25 1.59 1.41 1.19 1.05 0.95 0.98 0.80 0.88 1.20 1.36 1.04 0.90 0.77 0.53 0.43 0.40 0.40 0.43 0.46 0.50 0.55 0.55 0.53 0.59 0.64 0.64 0.68 0.79 0.83 0.86 0.92 0.99 1.06 1.10 1.13 1.12 1.10 1.12 1.17 1.29 1.40 1.52 1.56
1.38 1.50 1.27 1.16 1.05 0.96 0.87 0.68 0.78 1.37 1.63 1.00 0.71 0.64 0.50 0.43 0.43 0.41 0.43 0.49 0.54 0.54 0.53 0.50 0.56 0.60 0.62 0.65 0.70 0.70 0.79 0.83 0.90 0.94 1.01 1.06 1.05 1.05 1.09 1.14 1.18 1.24 1.31 1.39
1.27 1.46 0.96 0.71 0.58 0.63 0.65 0.54 0.65 1.03 1.06 1.05 0.69 0.55 0.58 0.55 0.50 0.44 0.44 0.45 0.46 0.48 0.49 0.51 0.53 0.56 0.56 0.53 0.53 0.55 0.62 0.70 0.76 0.83 0.93 1.00 1.05 1.13 1.22 1.23 1.18 1.16 1.18 1.25
0.99 1.24 0.96 0.73 0.49 0.47 0.50 0.44 0.50 0.64 0.68 0.73 0.58 0.58 0.50 0.46 0.41 0.40 0.42 0.40 0.41 0.43 0.43 0.43 0.46 0.51 0.52 0.51 0.49 0.49 0.53 0.57 0.59 0.66 0.75 0.86 0.95 1.06 1.19 1.25 1.24 1.19 1.14 1.19
0.85 1.03 1.10 0.76 0.44 0.58 0.71 0.61 0.60 0.64 0.65 0.70 0.74 0.65 0.45 0.43 0.43 0.47 0.45 0.40 0.40 0.38 0.38 0.37 0.39 0.44 0.44 0.45 0.47 0.49 0.50 0.53 0.55 0.56 0.61 0.73 0.89 0.97 1.06 1.16 1.21 1.20 1.19 1.29
0.69 0.90 1.21 0.91 0.68 0.87 0.66 0.45 0.47 0.56 0.63 0.65 0.64 0.51 0.43 0.45 0.48 0.47 0.44 0.41 0.40 0.35 0.33 0.32 0.35 0.38 0.37 0.37 0.41 0.43 0.44 0.48 0.55 0.59 0.64 0.72 0.82 0.92 1.05 1.14 1.21 1.25 1.26 1.35
0.45 0.87 1.32 1.11 0.88 0.57 0.35 0.29 0.45 0.58 0.63 0.50 0.46 0.42 0.35 0.34 0.36 0.38 0.39 0.38 0.41 0.37 0.31 0.29 0.31 0.34 0.31 0.33 0.39 0.39 0.41 0.47 0.52 0.58 0.64 0.68 0.76 0.87 0.99 1.13 1.24 1.29 1.33 1.39
0.45 0.77 1.39 1.22 1.00 0.64 0.42 0.23 0.28 0.49 0.74 0.40 0.35 0.37 0.34 0.31 0.40 0.40 0.36 0.38 0.35 0.34 0.34 0.33 0.31 0.30 0.30 0.35 0.39 0.40 0.44 0.49 0.54 0.57 0.63 0.66 0.73 0.82 0.92 1.04 1.15 1.24 1.27 1.28
0.63 1.02 1.26 1.05 0.97 0.56 0.38 0.23 0.22 0.67 0.89 0.43 0.37 0.38 0.38 0.41 0.45 0.40 0.34 0.34 0.34 0.34 0.35 0.39 0.40 0.39 0.41 0.44 0.45 0.46 0.48 0.52 0.55 0.57 0.63 0.68 0.72 0.78 0.86 0.92 0.96 1.01 1.04 1.05
0.57 0.70 0.72 0.76 0.96 0.69 0.39 0.33 0.60 0.79 0.51 0.42 0.40 0.42 0.47 0.48 0.42 0.40 0.38 0.36 0.34 0.37 0.39 0.42 0.47 0.48 0.48 0.49 0.50 0.51 0.54 0.58 0.57 0.58 0.63 0.69 0.73 0.71 0.72 0.76 0.80 0.79 0.80 0.83
0.55 0.68 0.70 0.70 0.80 0.71 0.58 0.67 0.71 0.62 0.54 0.47 0.47 0.46 0.48 0.52 0.52 0.49 0.47 0.45 0.41 0.41 0.44 0.44 0.45 0.44 0.45 0.50 0.56 0.58 0.59 0.59 0.57 0.58 0.60 0.62 0.64 0.64 0.65 0.66 0.69 0.71 0.72 0.73
0.47 0.46 0.55 0.58 0.59 0.53 0.49 0.48 0.46 0.47 0.51 0.50 0.49 0.49 0.48 0.50 0.53 0.52 0.53 0.51 0.50 0.48 0.45 0.44 0.42 0.42 0.44 0.46 0.50 0.53 0.52 0.52 0.51 0.54 0.53 0.53 0.53 0.56 0.58 0.60 0.64 0.70 0.73 0.70
0.47 0.43 0.48 0.51 0.46 0.37 0.34 0.36 0.37 0.36 0.34 0.36 0.37 0.40 0.44 0.45 0.49 0.51 0.53 0.51 0.50 0.47 0.46 0.43 0.43 0.43 0.45 0.45 0.46 0.49 0.49 0.47 0.47 0.48 0.46 0.46 0.47 0.50 0.55 0.56 0.60 0.67 0.72 0.76
0.49 0.52 0.57 0.57 0.44 0.44 0.42 0.37 0.33 0.32 0.32 0.33 0.34 0.36 0.38 0.40 0.46 0.46 0.47 0.47 0.46 0.47 0.45 0.42 0.41 0.43 0.44 0.42 0.45 0.46 0.47 0.48 0.48 0.48 0.47 0.47 0.44 0.47 0.53 0.57 0.60 0.68 0.72 0.78